Location: Unspecified
(0.0000°N, 0.0000°E)
Time: 16:47:10
(UTC+00:00)

SL-19 DEB - Visible Passes

Search period start: 14 January 2026 00:00
Search period end: 24 January 2026 00:00
Orbit: 1395 x 2224 km, 64.8° (Epoch: 8 June)

Date Brightness Start Highest point End Pass type
(mag) Time Alt. Az. Time Alt. Az. Time Alt. Az.
14 Jan ? 02:38:56 17° SSW 02:38:56 17° SSW 02:41:08 10° S visible
15 Jan ? 02:00:37 16° S 02:00:37 16° S 02:02:20 10° S visible
16 Jan ? 01:22:11 13° SSE 01:22:11 13° SSE 01:22:56 10° SSE visible
